Weather Service Report


668 
ASUS43 KTOP 010208
RWRKS 

WEATHER ROUNDUP FOR KANSAS
NATIONAL WEATHER SERVICE GOODLAND KS
900 PM CDT WED AUG 31 2016

NOTE:  "FAIR" INDICATES FEW OR NO CLOUDS BELOW 12,000 FEET WITH NO
SIGNIFICANT WEATHER AND/OR OBSTRUCTIONS TO VISIBILITY.

KSZ001>006-013>018-027>032-041>047-010300-
NORTHWEST KANSAS
  
CITY           SKY/WX    TMP DP  RH WIND       PRES   REMARKS
GOODLAND       PTCLDY    65  62  90 SE8       30.22S                  
HAYS           PTCLDY    70  57  64 SE3       30.17R                  
HILL CITY      CLOUDY    68  66  93 CALM      30.18R                  
RUSSELL        PTCLDY    69  67  93 NE5       30.15R                  
$$

KSZ061>065-074>080-084>089-010300-
SOUTHWEST KANSAS
  
CITY           SKY/WX    TMP DP  RH WIND       PRES   REMARKS
DODGE CITY     CLOUDY    70  67  90 NE6       30.17R                  
ELKHART          N/A     68  61  78 SE9         N/A                   
GARDEN CITY    CLOUDY    65  60  84 W3        30.20R                  
GREAT BEND     MOCLDY    70  59  68 NE7       30.15R                  
LIBERAL        CLOUDY    72  63  73 E5        30.19R                  
PRATT          CLOUDY    70  66  85 NE7       30.14R                  
$$

KSZ066>073-081>083-090>101-010300-
SOUTHEAST KANSAS
  
CITY           SKY/WX    TMP DP  RH WIND       PRES   REMARKS
CHANUTE        PTCLDY    73  68  84 MISG      30.07R                  
COFFEYVILLE    PTCLDY    73  70  90 CALM      30.05R                  
HUTCHINSON     LGT RAIN  72  69  90 NE5       30.12R                  
MEDICINE LODGE   N/A     74  68  81 NE6       30.10R                  
NEWTON         PTCLDY    72  70  93 MISG      30.12R                  
PARSONS        MOCLDY    74  71  91 N3        30.07R                  
WICHITA INTL   MOCLDY    77  70  79 NE7       30.09R                  
WICHITA JABRA  CLOUDY    74  71  91 NE7       30.10R                  
WICHITA MCCONL CLOUDY    76  69  79 NE6       30.10R                  
WINFIELD       CLOUDY    76  69  79 NE8       30.09R                  
$$

KSZ007>012-019>026-033>040-048>060-102>105-010300-
NORTHEAST KANSAS
  
CITY           SKY/WX    TMP DP  RH WIND       PRES   REMARKS
CONCORDIA      CLEAR     68  60  75 NE5       30.15R                  
EMPORIA        PTCLDY    71  68  90 N6        30.09R                  
LAWRENCE       PTCLDY    71  68  90 N7        30.10R                  
MANHATTAN      PTCLDY    70  62  76 N5        30.12R                  
MARYSVILLE     CLEAR     66  61  82 NE5       30.14R                  
OLATHE IND     PTCLDY    72  67  84 N8        30.11R                  
OLATHE EXE     PTCLDY    73  64  73 NE8       30.10R                  
SALINA         PTCLDY    73  70  90 N8        30.13R                  
TOPEKA BILLARD PTCLDY    69  61  75 N6        30.11R                  
TOPEKA FORBES  MOCLDY    73  64  73 N7        30.11R                  
$$
  

Return to Home page


Western Regional Climate Center, wrcc@dri.edu